Theta_e
346 353 352 353 361 354 358 357 353 354 354 351 349 351 352 353 354 358 348 349 352 350 347 344 336 331 335 332 328 331 331 331 332 331 331 333 337 337 337 337 337 336 332 329 329 329 329 329 328
351 354 355 351 359 357 360 355 355 354 352 351 351 350 351 356 350 349 349 349 352 351 350 350 342 336 336 330 331 333 333 330 332 333 333 332 334 337 339 338 335 331 330 329 329 329 330 329 329
345 355 356 354 355 359 359 355 354 352 351 350 350 348 350 353 349 349 349 350 352 351 351 348 345 343 341 340 333 334 333 331 331 334 335 334 335 337 338 335 332 331 330 330 329 329 330 332 334
351 355 353 356 357 357 355 354 352 351 351 349 349 351 350 351 349 350 348 350 351 353 353 344 344 345 345 344 339 335 338 334 332 332 331 331 335 338 338 337 335 333 331 330 329 330 332 334 335
351 350 352 353 355 356 354 353 352 352 352 352 350 349 351 348 349 349 349 349 351 352 353 346 342 342 343 344 342 342 339 335 332 331 331 331 334 337 339 337 336 332 329 329 330 332 334 337 337
350 350 349 351 351 353 353 353 351 352 351 352 347 349 352 350 349 349 350 349 349 350 350 350 341 336 340 343 343 343 342 341 337 336 336 332 335 334 338 337 337 335 330 331 332 332 333 335 335
349 348 350 350 352 353 355 353 352 352 351 352 349 354 352 350 348 349 349 349 349 349 349 350 347 339 335 338 339 341 341 341 341 336 335 335 335 333 335 337 335 335 338 333 333 336 335 335 337
346 345 344 346 349 354 354 353 353 352 352 352 351 354 352 350 347 348 348 348 348 348 349 348 348 348 346 343 338 338 339 339 340 340 337 336 336 335 333 335 336 336 337 338 334 333 332 334 338
344 341 343 345 344 347 353 350 353 354 352 352 353 352 351 348 347 347 346 346 348 348 348 347 347 347 346 348 345 340 340 336 335 336 337 337 336 338 335 337 341 337 336 337 335 333 333 336 338
342 341 341 341 344 347 352 352 352 354 353 354 353 353 352 347 347 346 345 344 345 347 348 347 348 349 350 349 347 340 341 345 337 341 339 341 341 339 337 335 335 334 335 332 333 331 333 339 348
340 342 341 340 341 345 349 351 352 352 351 348 351 354 351 348 346 346 345 345 345 347 348 348 348 349 349 349 350 343 344 344 342 337 339 342 341 339 339 338 336 340 339 341 342 343 344 348 348
340 340 340 340 345 347 347 348 350 350 351 350 351 354 351 348 346 345 345 346 346 348 349 349 350 350 350 350 350 350 350 345 346 347 343 341 342 343 341 341 340 346 343 342 343 342 346 348 348
338 337 336 341 342 345 346 348 348 349 351 351 351 353 352 349 348 346 346 347 347 348 350 350 351 350 350 351 351 349 348 346 345 344 343 341 342 344 343 342 343 345 346 343 342 343 348 348 345
335 335 336 336 340 342 344 343 349 347 351 352 351 352 352 351 350 349 348 348 348 349 349 350 351 351 349 350 350 350 349 349 345 343 343 342 341 340 347 344 342 345 348 344 341 347 345 344 344
333 336 337 337 337 341 342 342 346 345 351 352 352 351 352 351 351 351 351 351 351 350 350 351 352 352 350 349 349 350 349 347 345 344 346 345 343 340 342 346 343 345 344 342 345 344 343 344 344
334 337 338 335 337 340 340 339 337 342 348 350 352 351 351 352 352 352 353 353 353 352 352 352 352 351 352 351 351 351 350 349 345 343 343 345 344 340 344 340 340 343 346 347 344 344 345 346 347
335 336 334 333 334 335 340 339 339 339 344 345 350 351 351 352 352 353 352 353 353 354 354 354 353 351 352 352 351 351 350 345 343 342 341 344 344 342 342 341 342 342 343 345 347 346 345 346 346
335 334 333 332 332 332 333 335 335 336 342 343 346 349 351 351 351 352 351 352 354 354 355 352 346 343 353 354 350 352 351 345 345 345 342 343 344 344 342 347 346 343 342 346 348 345 345 347 347
332 333 331 332 331 332 332 333 333 333 335 338 343 347 349 351 351 351 351 346 353 354 355 356 353 350 350 354 354 354 349 347 345 345 345 340 343 345 345 341 346 342 344 347 344 347 348 345 348
332 331 332 331 331 331 332 333 334 334 336 336 340 346 346 349 351 352 352 351 351 354 355 355 357 356 351 354 354 353 353 350 344 345 343 343 344 345 345 344 341 346 345 345 345 347 346 346 349
331 331 330 330 331 332 333 336 339 338 339 339 338 343 344 347 349 351 353 353 350 345 344 351 353 355 351 352 355 352 352 350 347 346 347 345 345 346 345 344 343 344 343 347 344 345 348 348 344
331 330 330 331 332 335 334 340 340 340 341 343 340 341 344 347 349 349 351 353 351 344 339 345 341 349 349 345 356 351 346 346 346 343 345 345 347 345 345 346 344 344 345 345 347 346 348 349 347
331 331 331 332 333 335 335 337 340 341 342 345 345 345 345 341 347 349 348 351 353 350 345 339 345 346 347 347 350 351 347 345 346 351 346 344 345 345 345 348 346 346 344 345 345 348 348 346 346
330 331 332 333 334 336 335 336 341 344 348 347 347 347 346 343 342 347 348 349 353 354 354 348 344 340 347 348 348 348 350 347 347 344 349 351 350 351 346 345 345 346 346 347 348 345 343 344 348
331 332 335 335 336 337 335 336 340 343 346 348 349 348 347 346 346 347 349 350 353 354 355 353 352 345 346 351 348 348 348 348 346 346 350 351 350 350 351 347 347 346 345 345 347 347 347 348 347
332 333 335 337 336 336 334 335 343 343 345 348 349 349 348 348 349 349 350 352 354 355 356 355 355 351 350 349 348 348 349 351 352 351 352 351 350 350 351 351 349 347 344 344 343 344 348 348 346
333 334 333 334 334 335 336 336 336 343 344 348 349 349 350 350 350 352 354 354 354 354 356 356 354 348 348 345 343 348 350 350 355 351 348 346 352 353 350 347 348 346 345 344 343 346 348 347 343
334 333 335 336 339 339 337 336 337 342 345 348 348 350 351 349 351 353 351 351 350 351 352 354 355 352 350 346 343 342 350 352 353 348 347 348 346 350 347 346 344 344 344 344 344 346 346 346 348
334 335 335 335 336 338 337 336 339 342 346 348 344 347 351 351 348 346 345 345 347 350 350 351 352 353 353 351 352 353 354 350 350 348 339 340 348 350 349 346 343 342 343 346 344 346 346 345 344
333 334 335 337 338 337 336 335 339 343 345 343 342 346 351 352 350 345 344 345 346 346 345 345 347 348 350 354 356 356 357 354 349 346 345 335 346 346 345 344 343 341 343 347 345 347 346 349 344
Wind_Speed
6 3 2 1 4 2 7 6 3 7 5 6 7 2 7 8 7 6 22 17 22 22 24 24 25 24 23 23 24 25 26 27 26 23 20 17 16 16 15 14 13 13 14 14 14 14 14 15 15
1 1 2 3 3 4 6 4 9 11 10 8 6 2 4 11 8 18 21 22 24 23 22 20 24 24 24 23 23 22 22 24 23 19 15 12 12 12 12 11 11 12 13 11 10 10 11 11 11
2 2 4 1 2 7 7 6 9 7 4 3 4 8 5 5 12 22 20 25 24 23 21 22 23 23 24 22 22 21 20 21 20 17 12 9 9 10 10 10 11 10 10 9 8 7 8 8 8
1 1 4 3 10 8 8 4 4 6 8 6 3 8 8 6 18 15 25 24 23 21 20 24 22 21 22 23 23 22 21 21 21 19 18 16 12 8 8 9 9 8 7 7 6 5 5 5 5
1 4 4 6 10 7 3 0 1 4 5 6 5 9 12 13 12 25 24 22 22 20 18 22 20 20 21 22 23 22 23 24 25 28 25 20 16 11 8 8 8 7 6 5 4 3 2 1 1
3 4 4 9 11 7 3 1 0 4 4 5 12 14 9 10 18 24 23 21 21 19 19 18 20 19 20 20 20 19 19 21 23 20 19 31 25 20 9 7 7 6 5 4 3 2 2 2 2
5 3 7 8 8 8 4 2 2 4 4 7 6 6 9 13 19 23 22 20 19 18 18 17 17 19 19 19 19 18 17 18 18 16 17 27 24 27 15 9 8 7 5 5 3 2 2 2 4
5 2 5 5 6 10 3 2 2 2 5 5 2 5 9 18 23 22 20 20 19 18 17 17 17 17 16 16 17 17 17 17 18 16 17 20 22 25 20 13 9 8 7 5 4 3 3 4 6
4 4 7 9 10 8 4 2 2 1 1 1 2 3 11 24 25 23 22 20 19 18 17 17 17 17 16 16 16 18 17 17 16 15 14 15 19 19 25 15 11 10 9 8 6 5 4 5 6
5 9 11 6 5 8 3 2 2 2 1 2 7 9 20 27 26 25 24 23 22 20 19 18 17 16 16 14 16 17 17 14 16 15 14 13 12 16 15 21 13 13 11 9 8 6 6 5 6
5 7 6 5 4 2 1 4 4 4 4 3 8 14 22 25 25 23 21 20 20 19 18 17 17 16 15 14 12 17 16 20 15 15 14 12 12 11 15 21 18 12 12 9 9 7 5 8 4
4 6 6 4 1 2 3 2 2 3 5 5 6 17 23 24 23 22 20 19 20 19 18 18 17 17 16 14 14 11 12 13 16 14 13 12 12 13 14 18 19 15 14 12 12 7 11 7 7
4 9 5 3 5 6 4 4 5 3 4 6 12 17 21 21 20 20 19 18 19 19 18 18 17 17 15 15 11 11 14 13 13 14 13 11 11 10 12 17 18 15 13 13 11 8 8 7 8
7 10 12 4 6 7 8 8 2 3 9 13 15 17 18 20 20 19 19 18 18 18 18 17 17 16 15 14 13 12 10 10 13 12 12 11 11 11 8 10 13 14 13 13 11 9 9 8 8
7 9 6 5 3 7 5 11 7 4 11 13 15 16 16 19 20 20 19 18 17 16 16 17 16 16 15 15 13 13 12 11 14 10 9 10 11 11 11 10 11 10 11 12 11 10 9 8 7
2 4 5 8 3 1 6 5 3 4 10 12 15 17 17 18 19 18 18 17 16 15 16 15 14 15 16 15 14 12 13 13 14 14 13 11 12 14 11 11 10 11 11 9 9 8 9 9 8
1 2 4 2 3 3 4 10 6 1 9 10 14 17 18 17 17 19 20 19 18 17 15 17 17 18 18 16 13 12 14 13 16 14 13 13 13 13 16 13 12 12 12 11 11 9 11 9 9
5 4 3 4 4 6 6 10 10 9 10 8 11 15 17 19 19 18 17 19 20 20 19 21 19 19 17 16 14 13 12 14 15 13 13 13 14 15 17 13 13 13 13 8 11 13 11 9 10
5 6 8 5 5 6 9 10 12 10 10 8 9 14 18 18 18 18 19 17 17 17 18 20 20 21 17 14 15 14 15 14 17 15 14 17 19 15 15 16 13 15 14 12 11 9 9 9 9
5 9 8 9 1 6 11 13 9 5 5 5 7 13 15 17 19 21 22 18 16 16 20 20 19 16 16 14 15 14 12 15 15 16 15 15 17 15 15 14 17 14 11 11 10 9 8 9 9
8 8 8 9 10 11 9 6 1 6 8 6 2 8 11 17 22 25 26 25 19 15 15 16 17 15 13 16 14 15 14 15 15 17 17 16 18 16 16 16 15 15 15 10 13 10 7 5 6
14 6 6 9 9 6 4 4 8 5 6 13 12 4 6 12 18 22 25 28 28 17 6 8 9 14 17 16 17 15 14 14 14 14 13 14 15 17 17 17 17 15 14 14 11 11 9 8 8
7 3 8 9 11 7 4 8 9 4 5 10 10 7 3 7 17 22 26 27 26 26 13 11 11 12 13 14 16 16 17 14 13 11 11 12 13 16 16 17 18 17 17 15 15 14 12 10 11
5 11 9 7 5 8 6 7 10 6 7 9 9 8 6 2 12 17 20 21 23 24 25 20 19 18 15 14 16 17 17 14 13 12 10 8 9 11 15 18 20 17 17 17 14 14 14 12 12
9 15 5 6 6 2 6 6 9 6 7 8 9 8 7 4 4 7 12 18 21 23 23 25 28 22 21 20 20 18 17 16 15 13 11 11 10 11 12 16 19 19 19 19 17 16 15 15 14
10 10 4 3 2 4 5 4 6 5 5 7 6 7 8 10 8 6 8 11 15 19 19 20 20 27 17 18 20 19 17 15 14 13 12 11 11 13 14 16 16 17 20 22 22 20 16 17 16
8 10 9 9 6 7 3 2 10 3 4 7 8 7 10 11 11 10 8 6 8 13 15 15 16 21 20 14 15 19 18 18 14 14 12 14 13 15 18 19 18 19 20 23 24 18 17 17 18
6 5 6 4 4 7 6 7 6 7 4 5 8 11 9 12 11 10 9 7 6 5 7 10 13 14 15 19 10 11 14 15 15 12 15 14 15 18 18 20 21 22 23 25 25 19 16 17 15
6 9 3 6 6 8 10 5 5 4 3 5 5 9 7 7 7 8 9 7 6 6 4 3 6 10 11 14 13 15 12 15 15 16 15 23 17 18 19 18 20 17 17 21 24 20 19 19 17
6 8 8 7 8 4 7 11 5 4 2 5 6 6 8 4 5 6 6 6 6 6 5 3 2 6 8 11 13 14 13 15 18 24 21 8 14 14 15 16 15 16 14 18 20 19 19 16 18
Wind_Direction
1 19 172 259 222 121 74 73 338 67 97 68 116 23 49 27 360 66 141 147 153 150 152 148 152 152 146 152 152 151 155 160 149 144 141 137 134 135 137 137 130 124 121 113 109 106 103 98 97
194 145 216 256 241 103 81 39 59 51 74 97 96 117 91 80 53 128 141 148 150 150 148 149 157 157 150 152 153 155 156 163 162 161 150 144 144 141 141 142 132 127 120 116 109 105 100 98 101
53 209 275 334 47 70 84 70 82 76 63 48 105 55 52 64 118 133 146 144 149 149 153 160 159 163 156 152 157 157 157 157 168 170 177 169 163 160 153 150 142 138 127 124 115 105 99 98 102
356 246 230 60 86 77 68 98 51 45 62 58 50 83 84 111 129 140 144 143 149 151 155 158 153 158 164 162 162 164 161 167 168 174 178 189 171 170 175 171 159 152 143 134 125 111 102 102 106
298 264 81 84 99 95 94 54 37 44 35 42 353 86 102 129 130 144 145 145 151 153 162 160 161 160 163 167 169 171 178 184 191 194 191 186 186 182 190 179 175 164 157 147 140 132 128 114 153
154 282 65 77 84 93 120 37 40 27 56 100 94 103 92 134 140 148 148 150 153 155 163 168 168 170 173 174 177 182 186 188 203 205 216 186 190 187 190 190 187 179 175 176 170 186 222 232 239
30 40 57 77 85 83 64 57 346 18 43 56 114 86 124 144 153 153 151 154 155 158 163 166 167 172 176 180 182 186 191 194 205 212 213 206 189 191 177 199 201 199 198 201 198 206 238 265 268
4 282 96 55 61 76 100 106 6 340 68 126 122 123 162 159 156 155 156 157 159 161 169 170 175 174 171 175 180 184 192 203 214 217 221 217 210 203 186 200 207 200 205 212 220 240 275 281 275
317 64 63 74 65 88 124 84 106 13 135 116 105 78 142 156 156 159 161 164 168 168 173 174 177 179 178 181 187 186 195 202 207 218 225 228 231 213 203 201 212 207 215 223 229 245 280 280 289
5 48 38 45 69 62 131 170 135 212 191 149 136 113 146 156 162 166 170 174 175 176 177 182 180 182 182 187 198 195 200 196 203 213 221 215 228 228 207 210 215 214 222 230 242 254 274 286 253
49 33 31 59 33 23 60 215 188 254 153 84 181 157 157 163 168 174 177 180 179 181 180 187 186 188 188 191 214 206 208 203 213 217 227 215 216 224 217 220 224 235 244 237 270 271 295 257 222
322 44 1 21 320 295 252 357 278 306 58 28 133 164 163 169 176 181 182 183 183 186 187 190 191 192 190 203 203 218 224 226 211 212 221 224 222 217 217 204 214 219 221 232 238 254 251 233 240
335 347 350 294 260 263 290 288 303 279 175 124 139 160 171 174 180 185 188 190 191 194 194 197 196 200 199 201 208 209 227 226 222 222 220 224 222 227 230 222 213 218 219 229 232 248 254 239 226
338 313 303 321 263 267 276 304 254 122 161 154 153 164 177 179 180 183 187 191 197 200 202 201 202 205 202 208 207 215 221 227 240 220 225 226 219 221 207 243 221 216 224 219 230 243 233 236 227
313 284 295 24 323 257 286 269 229 112 167 171 168 170 177 185 186 189 189 194 196 202 204 203 206 210 210 211 219 221 225 223 236 224 211 220 218 218 206 209 188 197 206 211 228 228 231 220 231
306 249 295 59 356 89 244 302 49 161 191 191 188 179 180 184 191 192 195 196 200 196 207 206 210 214 221 216 216 221 229 226 232 224 228 223 226 225 223 210 214 196 210 215 217 222 226 221 223
242 48 21 113 57 343 248 300 70 44 205 207 199 194 184 180 187 194 199 200 200 203 205 209 214 211 217 223 220 223 232 231 243 218 230 233 226 227 221 223 219 217 222 219 214 218 221 226 234
328 332 12 343 14 304 291 284 292 254 249 238 207 205 196 182 188 191 193 201 204 206 200 221 222 234 224 211 222 228 231 234 245 236 224 221 228 224 225 210 220 218 233 227 224 225 222 214 230
311 292 309 326 353 297 309 301 301 314 273 263 210 212 203 192 183 189 195 199 207 215 207 211 233 226 217 212 220 227 238 242 244 244 252 238 233 232 229 217 217 226 234 215 236 224 229 228 236
293 296 281 304 292 293 302 304 322 330 335 315 232 213 209 186 181 190 199 202 209 213 216 210 214 224 216 220 225 230 239 245 252 246 242 245 246 234 232 217 222 238 231 232 231 229 236 233 230
234 313 343 324 313 269 293 241 86 69 66 55 174 196 198 191 193 196 202 201 199 221 220 223 227 216 230 225 227 236 238 240 251 249 244 244 248 238 233 228 225 230 233 233 246 238 222 217 221
298 49 319 304 297 352 335 110 82 93 91 61 64 116 189 186 202 206 208 206 199 185 172 190 232 226 232 228 219 232 250 258 258 259 254 247 243 238 236 237 234 231 237 236 235 241 221 224 253
318 353 320 303 286 258 74 275 105 111 96 21 24 30 52 191 201 207 208 211 208 205 192 170 228 221 212 224 223 226 236 251 250 237 247 259 248 232 233 232 233 234 236 244 231 223 236 236 246
307 271 249 252 261 239 55 312 107 46 359 357 2 358 355 232 197 202 205 205 208 212 214 209 227 229 219 219 228 232 235 236 238 244 242 241 242 243 244 241 240 236 234 232 231 229 234 238 242
233 249 237 212 204 10 43 277 49 37 23 351 351 358 14 53 134 167 185 195 203 207 209 216 232 244 243 230 240 232 234 237 240 240 247 240 248 247 242 244 241 244 244 237 231 231 239 244 240
214 304 310 247 302 5 119 276 93 39 1 20 13 20 41 61 76 117 159 184 198 201 212 215 226 230 239 239 239 236 232 235 238 243 235 247 255 259 251 247 244 244 248 244 245 240 245 240 232
157 233 14 288 180 257 62 164 246 135 23 27 25 32 59 76 82 96 110 137 174 191 210 216 223 227 237 234 247 245 239 233 233 237 250 250 259 257 255 260 256 251 248 242 239 236 234 227 227
301 72 232 187 291 317 340 299 281 18 3 29 33 40 61 78 71 88 87 89 112 162 202 223 233 240 249 235 248 249 242 237 239 263 266 263 270 271 266 266 265 265 255 237 227 224 233 226 221
173 211 208 308 292 310 294 341 40 6 341 329 9 43 37 56 67 87 83 75 87 91 106 190 235 249 240 237 244 265 245 247 237 232 263 271 259 270 271 269 270 260 255 220 218 222 226 225 221
280 300 277 281 299 280 290 286 83 54 344 345 331 18 28 39 82 117 82 73 64 63 61 45 321 287 277 261 248 246 249 248 242 228 265 258 242 258 265 266 263 250 238 214 213 217 218 221 227